Weather History for Columbia, MO

Change the Weather History Date:

Saturday, March 16, 2013

  Actual Average Record
Temperature  
Mean Temperature 51 °F 45 °F  
Max Temperature 65 °F 55 °F 87 °F (1945)
Min Temperature 37 °F 34 °F 8 °F (1900)
Degree Days  
Heating Degree Days 14 20  
Month to date heating degree days 423 370  
Since 1 July heating degree days 4006 4316  
Cooling Degree Days 0 0  
Month to date cooling degree days 0 0  
Year to date cooling degree days 1 0  
Moisture  
Dew Point 38 °F    
Average Humidity 71    
Maximum Humidity 86    
Minimum Humidity 56    
Precipitation  
Precipitation 0.01 in 0.09 in 1.37 in (1942)
Month to date precipitation 1.58 1.38  
Year to date precipitation 7.82 5.55  
Snow  
Snow 0.00 in 0.00 in 2.60 in (1947)
Month to date snowfall 0.3 1.2  
Since 1 July snowfall 25.0 17.3  
Snow Depth 0.00 in    
Sea Level Pressure  
Sea Level Pressure 29.92 in    
Wind  
Wind Speed 13 mph (North)    
Max Wind Speed 24 mph    
Max Gust Speed 29 mph    
Visibility 8 miles    
Events Rain    
T = Trace of Precipitation, MM = Missing Value Source: NWS Daily Summary

Daily Weather History Graph

Daily Weather History Graph

Search for Another Location

Airport:

Trip Planner

Search our weather history database for the weather conditions in past years. The results will help you decide how hot, cold, wet, or windy it might be!

Date:

Astronomy

Mar. 16, 2013 Rise Set
Actual Time 7:18 AM CDT 7:17 PM CDT
Civil Twilight 6:51 AM CDT 7:43 PM CDT
Nautical Twilight 6:20 AM CDT 8:14 PM CDT
Astronomical Twilight 5:49 AM CDT 8:46 PM CDT
Moon 9:51 AM CDT (3/16) No Moon Set
Length of Visible Light 12h 52m
Length of Day
11h 59m
Waxing Crescent, 23% of the Moon is Illuminated
Mar 16
Waxing Crescent
Mar 19
First Quarter
Mar 27
Full
Apr 2
Last Quarter
Apr 10
New

Hourly Weather History & Observations

Time (CDT) Temp. Windchill Dew Point Humidity Pressure Visibility Wind Dir Wind Speed Gust Speed Precip Events Conditions
12:54 AM 63.0 °F - 46.0 °F 54% 29.66 in 10.0 mi WSW 12.7 mph - N/A   Clear
1:54 AM 61.0 °F - 46.0 °F 58% 29.67 in 10.0 mi West 9.2 mph - N/A   Clear
2:54 AM 64.9 °F - 48.0 °F 54% 29.67 in 10.0 mi West 20.7 mph 27.6 mph N/A   Clear
3:54 AM 61.0 °F - 46.9 °F 60% 29.69 in 10.0 mi WNW 13.8 mph - N/A   Clear
4:54 AM 54.0 °F - 46.0 °F 75% 29.75 in 10.0 mi North 15.0 mph - N/A   Clear
5:54 AM 48.9 °F - 42.1 °F 77% 29.78 in 10.0 mi North 15.0 mph - N/A   Clear
6:54 AM 46.0 °F 38.8 °F 39.9 °F 79% 29.82 in 8.0 mi North 18.4 mph - N/A   Clear
7:37 AM 44.1 °F 38.1 °F 37.9 °F 79% 29.88 in 5.0 mi North 11.5 mph - N/A   Haze
7:54 AM 43.0 °F 36.4 °F 37.9 °F 82% 29.90 in 4.0 mi North 12.7 mph - N/A   Haze
8:54 AM 42.1 °F 32.6 °F 37.0 °F 82% 29.93 in 3.0 mi North 23.0 mph - N/A   Haze
9:28 AM 41.0 °F 32.2 °F 37.0 °F 86% 29.93 in 3.0 mi North 18.4 mph - N/A   Overcast
9:54 AM 41.0 °F 32.8 °F 37.0 °F 86% 29.95 in 4.0 mi NNE 16.1 mph - N/A   Overcast
10:54 AM 41.0 °F 33.1 °F 36.0 °F 82% 29.97 in 5.0 mi NNE 15.0 mph - N/A   Haze
11:54 AM 42.1 °F 34.5 °F 35.1 °F 76% 29.99 in 7.0 mi North 15.0 mph - N/A   Overcast
12:30 PM 42.1 °F 35.2 °F 35.1 °F 76% 30.00 in 9.0 mi North 12.7 mph - N/A   Overcast
12:51 PM 42.8 °F 36.6 °F 35.6 °F 76% 30.02 in 8.0 mi NNW 11.5 mph - N/A   Overcast
12:54 PM 42.1 °F 36.1 °F 36.0 °F 79% 30.02 in 8.0 mi North 10.4 mph - N/A   Overcast
1:34 PM 43.0 °F 36.4 °F 35.1 °F 74% 30.01 in 8.0 mi North 12.7 mph - N/A   Overcast
1:54 PM 43.0 °F 35.7 °F 35.1 °F 74% 30.00 in 7.0 mi NNE 15.0 mph - N/A   Overcast
2:54 PM 43.0 °F 36.4 °F 35.1 °F 74% 29.99 in 8.0 mi NNE 12.7 mph - N/A   Overcast
3:54 PM 44.1 °F 38.1 °F 35.1 °F 71% 29.99 in 10.0 mi NNE 11.5 mph - N/A   Overcast
4:54 PM 42.1 °F 35.7 °F 34.0 °F 73% 30.00 in 10.0 mi NNE 11.5 mph - 0.00 in Rain Light Rain
5:54 PM 41.0 °F 35.2 °F 36.0 °F 82% 30.02 in 9.0 mi NNE 9.2 mph - 0.01 in Rain Light Rain
6:54 PM 41.0 °F 34.7 °F 35.1 °F 79% 30.01 in 10.0 mi NE 10.4 mph - 0.00 in   Overcast
7:54 PM 39.9 °F 34.5 °F 34.0 °F 79% 30.03 in 10.0 mi NE 8.1 mph - 0.00 in   Overcast
8:54 PM 39.0 °F 32.3 °F 34.0 °F 82% 30.05 in 10.0 mi NE 10.4 mph - N/A   Overcast
9:45 PM 39.0 °F 32.3 °F 33.1 °F 79% 30.03 in 10.0 mi NE 10.4 mph - N/A   Overcast
9:54 PM 39.0 °F 32.3 °F 33.1 °F 79% 30.04 in 10.0 mi NE 10.4 mph - N/A   Overcast
10:54 PM 37.9 °F 30.9 °F 33.1 °F 83% 30.07 in 10.0 mi NE 10.4 mph - 0.00 in Rain Light Rain
11:54 PM 37.0 °F 31.0 °F 34.0 °F 89% 30.07 in 10.0 mi NNE 8.1 mph - 0.00 in   Overcast